Weather observations for the past three days for
La Paz International Airport
Imperial (Metric)
Date Time (mst) Wind (mph) Vis. (mi.) Weather Sky Cond. Temperature (ºF) Relative Humidity Wind Chill (°F) Heat Index (°F) Pressure Precipitation (in)
Air Dwpt 6 hour altimeter (in) sea level (mb) 1 hr 3 hr 6 hr
Max. Min.
21 22:43 S 13 10.00 Clear SKC 77 57.2 51% 79 29.89 1009.7
21 21:42 S 14 10.00 Clear SKC 78.8 57.2 48% 80 29.88 0.0
21 20:41 S 10 10.00 Clear SKC 78.8 55.4 45% 79 29.87 0.0
21 19:45 S 14 10.00 Clear SKC 80.6 55.4 42% 81 29.85 1010.6
21 18:45 S 14 10.00 Clear SKC 86 53.6 33% 84 29.82 0.0
21 17:47 S 14 10.00 A Few Clouds FEW200 93.2 53.6 26% 91 29.8 0.0
21 16:40 N 10 10.00 A Few Clouds FEW200 95 53.6 25% 93 29.79 1008.8
21 14:45 N 15 10.00 A Few Clouds FEW100 FEW200 95 53.6 25% 93 29.82 0.0
21 13:45 NW 10 10.00 A Few Clouds FEW100 FEW200 95 53.6 25% 93 29.85 1010.3
21 12:45 N 7 10.00 A Few Clouds FEW100 FEW200 93.2 53.6 26% 91 29.87 0.0
21 11:45 N 10 10.00 A Few Clouds FEW100 93.2 53.6 26% 91 29.88 0.0
21 10:45 N 7 10.00 A Few Clouds FEW100 FEW200 93.2 53.6 26% 91 29.91 1012.6
21 09:44 S 6 10.00 Partly Cloudy FEW100 SCT200 89.6 55.4 31% 88 29.92 0.0
21 08:45 S 8 10.00 Mostly Cloudy SCT100 BKN200 84.2 57.2 40% 83 29.93 0.0
21 07:45 S 13 10.00 Partly Cloudy FEW050 FEW100 SCT200 77 62.6 61% 79 29.92 1013.2
21 06:45 S 10 10.00 Partly Cloudy FEW050 SCT200 73.4 64.4 74% 29.92 0.0
21 06:02 S 8 10.00 Partly Cloudy FEW050 SCT200 71.6 64.4 78% 29.91 0.0
20 22:42 SW 7 10.00 Clear SKC 77 57.2 51% 79 29.95 1011.7
20 21:41 S 9 10.00 Clear SKC 78.8 55.4 45% 79 29.94 0.0
20 20:43 S 9 10.00 Clear SKC 78.8 57.2 48% 80 29.92 0.0
20 19:45 S 10 10.00 Clear SKC 80.6 55.4 42% 81 29.9 1012.5
20 18:44 S 17 10.00 Clear SKC 84.2 55.4 37% 83 29.86 0.0
20 17:42 SW 10 10.00 Clear SKC 89.6 55.4 31% 88 29.84 0.0
20 16:45 NW 9 10.00 Clear SKC 93.2 57.2 30% 92 29.82 1009.9
20 15:45 NW 10 10.00 A Few Clouds FEW030 95 57.2 28% 94 29.83 0.0
20 14:43 N 13 10.00 A Few Clouds FEW030 95 57.2 28% 94 29.84 0.0
20 13:43 N 15 10.00 Clear SKC 95 64.4 36% 97 29.87 1011.3
20 12:45 N 13 10.00 Clear SKC 91.4 64.4 41% 93 29.88 0.0
20 11:46 NW 9 10.00 Clear SKC 91.4 59 34% 91 29.9 0.0
20 10:40 NW 8 10.00 Clear SKC 89.6 57.2 33% 88 29.92 1013.2
20 09:46 N 7 10.00 Clear SKC 89.6 44.6 21% 86 29.93 0.0
20 08:40 Calm 10.00 A Few Clouds FEW050 FEW200 86 53.6 33% 84 29.94 0.0
20 07:45 S 5 10.00 Partly Cloudy FEW050 SCT200 78.8 60.8 54% 80 29.94 1013.7
20 06:45 S 8 10.00 Mostly Cloudy FEW050 BKN200 73.4 60.8 65% 29.93 0.0
20 06:00 S 9 10.00 Mostly Cloudy FEW050 BKN200 71.6 62.6 73% 29.92 0.0
19 22:44 S 8 10.00 Clear SKC 77 57.2 51% 79 29.96 0.0
19 21:44 S 9 10.00 Clear SKC 78.8 59 51% 80 29.93 0.0
19 20:47 SW 12 10.00 Clear SKC 78.8 59 51% 80 29.91 0.0
19 19:45 SW 12 10.00 Clear SKC 82.4 55.4 40% 82 29.88 1011.9
19 18:45 SW 13 10.00 Clear SKC 86 53.6 33% 84 29.85 0.0
19 17:45 S 17 10.00 Clear SKC 91.4 53.6 28% 89 29.81 0.0
19 16:45 NW 8 10.00 Clear SKC 89.6 68 49% 93 29.81 1009.3
19 15:40 NW 13 10.00 Clear SKC 89.6 68 49% 93 29.82 0.0
19 14:45 NW 15 10.00 Clear SKC 95 60.8 32% 95 29.83 0.0
19 13:40 N 14 10.00 Clear SKC 95 59 30% 94 29.85 1010.7
19 12:46 N 14 10.00 Clear SKC 91.4 53.6 28% 89 29.87 0.0
19 11:45 N 13 10.00 A Few Clouds FEW050 FEW200 91.4 48.2 23% 88 29.89 0.0
19 10:47 N 10 10.00 A Few Clouds FEW050 93.2 42.8 17% 89 29.9 1012.3
19 09:42 Calm 10.00 A Few Clouds FEW050 89.6 51.8 27% 87 29.92 0.0
19 08:45 SE 6 10.00 A Few Clouds FEW050 82.4 55.4 40% 82 29.94 0.0
19 07:41 S 10 10.00 A Few Clouds FEW050 75.2 62.6 65% 77 29.95 1013.9
19 06:45 S 9 10.00 A Few Clouds FEW050 69.8 62.6 78% 29.95 0.0
19 06:00 S 10 10.00 A Few Clouds FEW050 68 62.6 83% 29.94 0.0
Date Time (mst) Wind (mph) Vis. (mi.) Weather Sky Cond. Air Dwpt Max. Min. Relative Humidity Wind Chill (°F) Heat Index (°F) altimeter (in) sea level (mb) 1 hr 3 hr 6 hr
6 hour
Temperature (ºF) Pressure Precipitation (in)